User: anonymous   Login
Location: Monteux
(44.0348°N, 4.9972°E)
Time: 04:55:11
(UTC+00:00)
Language:

PSLV R/B - Orbit

View from above orbital plane
View from above orbital plane
View from above satellite
View from above satellite

Ground track
Ground track

The orbit data is extracted from the following two-line orbital elements,

1 36800U 10035F   21059.80742247  .00000622  00000-0  62679-4 0  9991
2 36800  98.1623 253.6760 0021911 189.1691 170.9131 14.94867006579116
Epoch (UTC): 28 February 2021 19:22:41
Eccentricity: 0.0021911
inclination: 98.1623°
perigee height: 567 km
apogee height: 598 km
right ascension of ascending node: 253.6760°
argument of perigee: 189.1691°
revolutions per day: 14.94867006
mean anomaly at epoch: 170.9131°
orbit number at epoch: 57911

The dashed part of the orbit path shows where the satellite is in the earth's shadow,  

DLR